Regional Weather Roundup
Issued by NWS

Home | Current Version | Previous Version | Graphics & Text | Print | Product List | Glossary On
Versions: 1 2 3 4 5 6 7 8 9 10 11 12 13 14 15 16 17 18 19 20 21 22 23 24 25 26 27 28 29 30 31 32 33 34 35 36 37 38 39 40 41 42 43 44 45 46 47 48 49 50
000
ASUS43 KMKX 192100
RWRWI

WISCONSIN REGIONAL WEATHER ROUNDUP
NATIONAL WEATHER SERVICE MILWAUKEE/SULLIVAN WI
400 PM CDT SUN OCT 19 2014

NOTE: "FAIR" INDICATES FEW OR NO CLOUDS BELOW 12,000 FEET WITH NO
SIGNIFICANT WEATHER AND/OR OBSTRUCTIONS TO VISIBILITY.

WIZ001-002-006>008-014>016-023>028-192200-
NORTHWEST WISCONSIN

CITY           SKY/WX    TMP DP  RH WIND       PRES   REMARKS
SUPERIOR ARPT  SUNNY     63  44  49 SW14      29.71S
ASHLAND        PTSUNNY   61  43  51 SW9       29.72F
HAYWARD        SUNNY     59  43  55 SW13      29.75F
SIREN          SUNNY     62  42  48 SW13G20   29.76F
CUMBERLAND     SUNNY     59  43  55 SW14      29.78S
RICE LAKE      SUNNY     59  43  54 S13G18    29.80F
CHETEK         SUNNY     59  45  58 S9        29.79F
LADYSMITH      SUNNY     58  44  58 SW15G22   29.80F
EAU CLAIRE     CLOUDY    62  44  51 SW15      29.80F
MENOMONIE      FAIR      64  44  48 S14       29.80F
NEW RICHMOND   SUNNY     63  43  48 SW15      29.79F
OSCEOLA        SUNNY     63  45  51 SW13      29.81S
$$

WIZ003>005-009-010-017-018-192200-
NORTH CENTRAL WISCONSIN

CITY           SKY/WX    TMP DP  RH WIND       PRES   REMARKS
MANITOWISH WTR PTSUNNY   52  42  68 SW13G22   29.76F
ARBOR VITAE    CLOUDY    55  44  67 SW17G23   29.77F
WOODRUFF       CLOUDY    55  44  67 SW17G23   29.77F
RHINELANDER    CLOUDY    52  42  69 SW16      29.79F
EAGLE RIVER    CLOUDY    50  39  66 SW12G18   29.76F
LAND O LAKES   CLOUDY    51  41  69 SW10      29.77S
PHILLIPS       MOSUNNY   53  42  66 SW15G22   29.78F
TOMAHAWK       CLOUDY    53  43  70 SW8       29.81F
MEDFORD        PTSUNNY   53  43  68 SW12G21   29.82F
MERRILL        CLOUDY    55  43  66 SW12G22   29.82F
$$

WIZ029-030-035-036-043>047-192200-
CENTRAL WISCONSIN

CITY           SKY/WX    TMP DP  RH WIND       PRES   REMARKS
WAUSAU         CLOUDY    54  43  66 S12       29.81F
MOSINEE        NOT AVBL
MARSHFIELD     CLOUDY    55  44  66 SW10      29.83F
STEVENS POINT  DRIZZLE   54  40  60 S16       29.86S
WAUPACA        PTSUNNY   60  41  50 S17G25    29.87F
WAUTOMA        NOT AVBL
WISC RAPIDS    LGT RAIN  55  44  66 S13       29.86F
CAMP DOUGLAS   NOT AVBL
$$

WIZ011>013-019>022-031-037>040-048>050-192200-
NORTHEAST WISCONSIN

CITY           SKY/WX    TMP DP  RH WIND       PRES   REMARKS
ANTIGO         LGT RAIN  48  43  82 SW9       29.83F
SHAWANO        DRIZZLE   55  42  59 S10G17    29.86F
OCONTO         CLOUDY    52  43  70 S10G16    29.86F
STURGEON BAY   CLOUDY    52  43  71 S13G20    29.88F
GREEN BAY      CLOUDY    55  42  61 S18G25    29.87F
MANITOWOC      NOT AVBL
APPLETON       PTSUNNY   55  39  54 SW16G23   29.89F
CLINTONVILLE   LGT RAIN  54  41  62 SW15G23   29.86F
OSHKOSH        PTSUNNY   56  43  61 S14       29.89F
$$

WIZ032>034-041-042-053>061-192200-
SOUTHWEST WISCONSIN

CITY           SKY/WX    TMP DP  RH WIND       PRES   REMARKS
LA CROSSE      PTSUNNY   63  45  51 S13       29.85F
SPARTA         MOSUNNY   62  42  47 SW10G22   29.86F
VIROQUA        PTSUNNY   58  44  58 S15G24    29.88F
BOSCOBEL       MOSUNNY   62  44  51 S17G28    29.91F
PRAIRIE DU CHI MOSUNNY   61  42  50 S8G17     29.92F
PLATTEVILLE    PTSUNNY   59  44  57 S20G26    29.96F
$$

WIZ056-057-062-063-064-067-068-192200-
SOUTH CENTRAL WISCONSIN

CITY           SKY/WX    TMP DP  RH WIND       PRES   REMARKS
REEDSBURG      PTSUNNY   56  44  64 SW17G25   29.89F
BARABOO/DELLS  PTSUNNY   56  41  57 SW16G24   29.89F
LONE ROCK      NOT AVBL
MINERAL POINT  MOSUNNY   59  41  51 S16G23    29.94F
MADISON        CLOUDY    57  42  57 S14G23    29.93F
MIDDLETON      CLOUDY    59  40  49 SW17      29.94F
WATERTOWN      CLOUDY    55  40  59 S12G21    29.94F
MONROE         PTSUNNY   54  43  66 SW17G25   29.97F
JANESVILLE     SUNNY     57  39  51 SW16      29.97F
$$

WIZ051-052-058>065-066-070>072-192200-
SOUTHEAST WISCONSIN

CITY           SKY/WX    TMP DP  RH WIND       PRES   REMARKS
MILWAUKEE      CLOUDY    55  39  54 S15G22    29.98F
WAUKESHA       MOSUNNY   52  39  62 S12G23    29.98F
MILWAUKEE/TIMM NOT AVBL
RACINE         CLOUDY    54  40  59 SW15      30.00F
BURLINGTON     PTSUNNY   54  39  56 SW12G20   29.99F
KENOSHA        CLOUDY    55  41  59 SW16      30.00F
FOND DU LAC    PTSUNNY   55  40  56 S18G24    29.91F
SHEBOYGAN      CLOUDY    55  40  56 SW18G25   29.92F
WEST BEND      CLOUDY    54  37  54 S14G22    29.95F
JUNEAU         PTSUNNY   55  42  61 S14G21    29.95F
$$

LSZ147-162-192200-
LAKE SUPERIOR

STATION/POSITION TIME  TEMP    WIND        PRES    WAVE
                       AIR SEA DIR/SP/G            HT/PER
                 (UTC) (F)     (DEG/KT/KT) (MB)    (FT/S)
W MID LAKE BUOY  1950   48 46  200/  8/  8 1007.1F   2/ 5
DEVILS ISLAND    2000   50     260/  8/ 10 1006.7F
PORT WING        2000   53     280/  7/ 10 1006.4F
SAXON HARBOR     2040   60     230/  6/ 13 1006.4F
$$

LMZ867-665-643>646-192200-
LAKE MICHIGAN

STATION/POSITION TIME  TEMP    WIND        PRES    WAVE
                       AIR SEA DIR/SP/G            HT/PER
                 (UTC) (F)     (DEG/KT/KT) (MB)    (FT/S)
CHAMBERS ISLAND  2000   52     180/  9/ 16 1012.5F
N MID LAKE BUOY  1950   49 51  200/ 21/ 25 1013.3F   5/ 5
NORTHPORT PIER   2000   51     160/  6/ 16 1012.5F
KEWAUNEE LAKESHO 2000   50     170/ 17/ 19 1012.7F
SHEBOYGAN LAKESH 2000   54 50  210/ 21/ 24 1014.9F
PORT WASHINGTON  2000   56     210/  8/ 13 1015.9
ATWATER BUOY     2000   54     190/ 14/ 17 1017.0F
MILWAUKEE LAKESH 2000   54     220/ 16/ 18   N/A
S MID LAKE BUOY  1950   51 55  200/ 17/ 21 1017.7F   3/ 5
KENOSHA   LAKESH 2000   54     220/ 13/ 17 1016.6F
$$

TC  - TEMPERATURE IN CELSIUS
VSB - VISIBILITY IN STATUTE MILES
WCI - WIND CHILL INDEX
HX  - HEAT INDEX



USA.gov is the U.S. government's official web portal to all federal, state and local government web resources and services.